When you browse on this site, cookies collect data to enhance your experience and personalize the content and advertising you see.
Visit our Privacy Policy to learn more. By continuing to use the site, you agree to this use of cookies and data.
  • In Hungary
  • List of Countries
  • For 7 days
  • Water Temperature
  • Satellite Maps
  • Weather Map
  • News
  • Weather Widgets
  • user-avatar
    Login

    Hourly Weather Ali Sabieh

    Today, 26 April, Friday

    Time Temperature Precipitation Wind Pressure Humidity
    00:00 +27°C° 0 mm 5 mps 698 mmHg 59%
    01:00 +26°C° 0 mm 5 mps 698 mmHg 61%
    02:00 +26°C° 0 mm 4 mps 697 mmHg 64%
    03:00 +25°C° 0 mm 4 mps 697 mmHg 66%
    04:00 +25°C° 0 mm 4 mps 697 mmHg 67%
    05:00 +25°C° 0 mm 3 mps 697 mmHg 69%
    06:00 +24°C° 0 mm 3 mps 697 mmHg 71%
    07:00 +26°C° 0 mm 4 mps 698 mmHg 63%
    08:00 +27°C° 0 mm 5 mps 698 mmHg 55%
    09:00 +29°C° 0 mm 7 mps 699 mmHg 49%
    10:00 +30°C° 0 mm 7 mps 698 mmHg 44%
    11:00 +32°C° 0 mm 8 mps 698 mmHg 39%
    12:00 +34°C° 0 mm 9 mps 698 mmHg 34%
    13:00 +34°C° 0 mm 9 mps 698 mmHg 34%
    14:00 +34°C° 0 mm 9 mps 697 mmHg 35%
    15:00 +34°C° 0 mm 9 mps 697 mmHg 35%
    16:00 +33°C° 0 mm 9 mps 696 mmHg 41%
    17:00 +31°C° 0 mm 9 mps 696 mmHg 47%
    18:00 +29°C° 0 mm 8 mps 696 mmHg 53%
    19:00 +28°C° 0 mm 8 mps 696 mmHg 56%
    20:00 +28°C° 0 mm 7 mps 696 mmHg 59%
    21:00 +27°C° 0 mm 7 mps 697 mmHg 62%
    22:00 +27°C° 0 mm 6 mps 697 mmHg 63%
    23:00 +26°C° 0 mm 6 mps 697 mmHg 63%

    Tomorrow, 27 April, Saturday

    Time Temperature Precipitation Wind Pressure Humidity
    00:00 +26°C° 0 mm 6 mps 697 mmHg 64%
    01:00 +26°C° 0 mm 6 mps 696 mmHg 65%
    02:00 +24°C° 0 mm 6 mps 696 mmHg 67%
    03:00 +25°C° 0 mm 5 mps 696 mmHg 69%
    04:00 +25°C° 0 mm 5 mps 696 mmHg 72%
    05:00 +25°C° 0 mm 5 mps 696 mmHg 75%
    06:00 +23°C° 0 mm 5 mps 696 mmHg 78%
    07:00 +24°C° 0 mm 6 mps 697 mmHg 72%
    08:00 +27°C° 0 mm 6 mps 697 mmHg 66%
    09:00 +28°C° 0 mm 7 mps 698 mmHg 59%
    10:00 +29°C° 0 mm 8 mps 698 mmHg 55%
    11:00 +31°C° 0 mm 8 mps 698 mmHg 51%
    12:00 +33°C° 0 mm 9 mps 698 mmHg 46%
    13:00 +33°C° 0 mm 9 mps 697 mmHg 48%
    14:00 +33°C° 0 mm 9 mps 696 mmHg 51%
    15:00 +33°C° 0 mm 9 mps 696 mmHg 53%
    16:00 +31°C° 0 mm 9 mps 696 mmHg 57%
    17:00 +29°C° 0 mm 9 mps 695 mmHg 62%
    18:00 +28°C° 0 mm 8 mps 695 mmHg 66%
    19:00 +28°C° 0 mm 8 mps 696 mmHg 70%
    20:00 +27°C° 0 mm 7 mps 696 mmHg 73%
    21:00 +27°C° 0 mm 7 mps 696 mmHg 76%
    22:00 +27°C° 0 mm 6 mps 696 mmHg 78%
    23:00 +26°C° 0 mm 6 mps 696 mmHg 79%

    Day after tomorrow, 28 April, Sunday

    Time Temperature Precipitation Wind Pressure Humidity
    00:00 +26°C° 0 mm 6 mps 696 mmHg 81%
    01:00 +26°C° 0 mm 6 mps 696 mmHg 81%
    02:00 +26°C° 0 mm 5 mps 696 mmHg 81%
    03:00 +26°C° 0 mm 5 mps 695 mmHg 82%
    04:00 +26°C° 0 mm 5 mps 695 mmHg 82%
    05:00 +25°C° 0 mm 5 mps 696 mmHg 82%
    06:00 +25°C° 0 mm 5 mps 696 mmHg 83%
    07:00 +26°C° 0 mm 6 mps 696 mmHg 77%
    08:00 +27°C° 0 mm 6 mps 697 mmHg 72%
    09:00 +28°C° 0 mm 7 mps 698 mmHg 67%
    10:00 +29°C° 0 mm 7 mps 698 mmHg 61%
    11:00 +32°C° 0 mm 7 mps 698 mmHg 55%
    12:00 +33°C° 0 mm 8 mps 698 mmHg 50%
    13:00 +33°C° 0 mm 8 mps 697 mmHg 49%
    14:00 +34°C° 0 mm 8 mps 696 mmHg 48%
    15:00 +34°C° 0 mm 8 mps 695 mmHg 47%
    16:00 +33°C° 0 mm 7 mps 695 mmHg 51%
    17:00 +32°C° 0 mm 7 mps 695 mmHg 55%
    18:00 +29°C° 0 mm 7 mps 695 mmHg 60%
    19:00 +29°C° 0 mm 6 mps 695 mmHg 64%
    20:00 +28°C° 0 mm 6 mps 696 mmHg 68%
    21:00 +28°C° 0 mm 5 mps 696 mmHg 71%
    22:00 +27°C° 0 mm 5 mps 696 mmHg 73%
    23:00 +27°C° 0 mm 4 mps 696 mmHg 75%

    29 April, Monday

    Time Temperature Precipitation Wind Pressure Humidity
    00:00 +27°C° 0 mm 4 mps 696 mmHg 76%
    01:00 +27°C° 0 mm 4 mps 696 mmHg 78%
    02:00 +26°C° 0 mm 4 mps 696 mmHg 79%
    03:00 +26°C° 0 mm 4 mps 695 mmHg 81%
    04:00 +26°C° 0 mm 4 mps 696 mmHg 82%
    05:00 +25°C° 0 mm 4 mps 696 mmHg 84%
    06:00 +25°C° 0 mm 4 mps 696 mmHg 85%
    07:00 +26°C° 0 mm 4 mps 697 mmHg 78%
    08:00 +28°C° 0 mm 5 mps 698 mmHg 72%
    09:00 +29°C° 0 mm 5 mps 698 mmHg 65%
    10:00 +30°C° 0 mm 5 mps 698 mmHg 58%
    11:00 +33°C° 0 mm 6 mps 698 mmHg 52%
    12:00 +34°C° 0 mm 6 mps 698 mmHg 45%
    13:00 +35°C° 0 mm 6 mps 697 mmHg 44%
    14:00 +35°C° 0 mm 6 mps 697 mmHg 44%
    15:00 +35°C° 0 mm 7 mps 696 mmHg 43%
    16:00 +34°C° 0 mm 6 mps 696 mmHg 47%
    17:00 +33°C° 0 mm 6 mps 696 mmHg 50%
    18:00 +32°C° 0 mm 6 mps 695 mmHg 54%
    19:00 +30°C° 0 mm 5 mps 696 mmHg 57%
    20:00 +30°C° 0 mm 5 mps 696 mmHg 61%
    21:00 +29°C° 0 mm 4 mps 697 mmHg 65%
    22:00 +28°C° 0 mm 4 mps 697 mmHg 67%
    23:00 +28°C° 0 mm 4 mps 697 mmHg 70%

    30 April, Tuesday

    Time Temperature Precipitation Wind Pressure Humidity
    00:00 +28°C° 0 mm 4 mps 697 mmHg 72%
    01:00 +27°C° 0 mm 4 mps 696 mmHg 74%
    02:00 +27°C° 0 mm 4 mps 696 mmHg 76%
    03:00 +26°C° 0 mm 4 mps 696 mmHg 79%
    04:00 +26°C° 0 mm 3 mps 696 mmHg 78%
    05:00 +26°C° 0 mm 3 mps 696 mmHg 77%
    06:00 +26°C° 0 mm 3 mps 697 mmHg 77%
    07:00 +27°C° 0 mm 3 mps 698 mmHg 66%
    08:00 +29°C° 0 mm 4 mps 698 mmHg 54%
    09:00 +30°C° 0 mm 4 mps 699 mmHg 43%
    10:00 +33°C° 0 mm 4 mps 699 mmHg 40%
    11:00 +34°C° 0 mm 5 mps 698 mmHg 38%
    12:00 +36°C° 0 mm 5 mps 698 mmHg 35%
    13:00 +36°C° 0 mm 5 mps 697 mmHg 35%
    14:00 +36°C° 0 mm 6 mps 697 mmHg 35%
    15:00 +38°C° 0 mm 6 mps 696 mmHg 35%
    16:00 +36°C° 0 mm 6 mps 696 mmHg 38%
    17:00 +35°C° 0 mm 5 mps 696 mmHg 41%
    18:00 +33°C° 0 mm 5 mps 696 mmHg 44%
    19:00 +33°C° 0 mm 4 mps 696 mmHg 45%
    20:00 +32°C° 0 mm 4 mps 696 mmHg 46%
    21:00 +31°C° 0 mm 3 mps 697 mmHg 47%
    22:00 +30°C° 0 mm 3 mps 696 mmHg 50%
    23:00 +30°C° 0 mm 3 mps 696 mmHg 52%

    1 May, Wednesday

    Time Temperature Precipitation Wind Pressure Humidity
    00:00 +29°C° 0 mm 3 mps 696 mmHg 55%
    01:00 +29°C° 0 mm 3 mps 696 mmHg 58%
    02:00 +28°C° 0 mm 3 mps 695 mmHg 61%
    03:00 +28°C° 0 mm 3 mps 695 mmHg 64%
    04:00 +27°C° 0 mm 3 mps 695 mmHg 66%
    05:00 +27°C° 0 mm 3 mps 696 mmHg 68%
    06:00 +27°C° 0 mm 3 mps 696 mmHg 69%
    07:00 +28°C° 0 mm 3 mps 697 mmHg 59%
    08:00 +30°C° 0 mm 4 mps 697 mmHg 49%
    09:00 +32°C° 0 mm 4 mps 698 mmHg 39%
    10:00 +34°C° 0 mm 5 mps 698 mmHg 36%
    11:00 +35°C° 0 mm 5 mps 697 mmHg 33%
    12:00 +36°C° 0 mm 6 mps 697 mmHg 30%
    13:00 +38°C° 0 mm 6 mps 696 mmHg 29%
    14:00 +38°C° 0 mm 6 mps 696 mmHg 28%
    15:00 +38°C° 0 mm 6 mps 695 mmHg 28%
    16:00 +36°C° 0 mm 6 mps 695 mmHg 31%
    17:00 +35°C° 0 mm 5 mps 695 mmHg 34%
    18:00 +34°C° 0 mm 5 mps 695 mmHg 37%
    19:00 +34°C° 0 mm 4 mps 695 mmHg 40%
    20:00 +33°C° 0 mm 4 mps 695 mmHg 43%
    21:00 +31°C° 0 mm 3 mps 696 mmHg 46%
    22:00 +30°C° 0 mm 3 mps 696 mmHg 49%
    23:00 +30°C° 0 mm 3 mps 695 mmHg 52%
    Show more